Location: Mohawk View
(42.7837°N, 73.7885°W)
Time: 08:33:41
(UTC+00:00)

Cosmos 1000 Rocket - Pass Details

Date: 17 June 2021
Orbit: 954 x 991 km, 82.9° (Epoch: 27 July)

Event Time Altitude Azimuth Distance (km) Brightness Sun altitude
Exits shadow 02:24:18 14° 182° (S) 2,429 6.1 -15.2°
Maximum altitude 02:29:46 83° 96° (E) 969 4.4 -15.7°
Drops below altitude 10° 02:35:55 10° 9° (N) 2,692 7.5 -16.4°
Sets 02:38:25 0° 9° (N) 3,642 8.3 -16.6°
